METEOR 2-17 DEB

Satellite information

Favourite Embed

Satellite Type and Status

DEBRISIN ORBIT

Key statistics

Satellite METEOR 2-17 DEB at a glance.

Uptime

13613

Days in orbit

Revolutions

≈ 14.0

Per day

Orbit

LEO

Low Earth Orbit

Inclination

82.5

Latest

Satellite identification and parameters

Extended collection of information and parameters for METEOR 2-17 DEB.

Object identification

Identified? True

Debris? True

Object name: METEOR 2-17 DEB

International designator: 1988-005G

Object number (NORAD): 28992

Object ID (CCSDS): 28992

Country: COMMONWEALTH OF INDEPENDENT STATES (CIS)

Current information (Y/N): Y

RCS size: SMALL

Orbital parameters

Period: 102.953 minutes

Inclination: 82.5388 deg

SMA: 7276.432 km

Apoapsis: 902.55 km

Periapsis: 894.044 km

RAAN: 252.7305 deg

Eccentricy: 0.0005845

Argument of periapsis: 104.7693 deg

Mean anomaly: 271.525 deg

Mean motion: 13.98701425 rev/day

Mean motion (dot): 0.00003414 rev/day2

B* drag term: 0.0023658 1/REarth

Two-line elements (TLE)

Creation date: May 6, 2025, 3:54 a.m.

Reference frame: TEME

Reference center: EARTH

Epoch: May 5, 2025, 2:19 p.m. UTC

TLE line 0: 0 METEOR 2-17 DEB

TLE line 1: 1 28992U 88005G 25125.59660178 .00003414 00000-0 23658-2 0 9996

TLE line 2: 2 28992 82.5388 252.7305 0005845 104.7693 271.5250 13.98701425603531

Live tracking on map

Real-time ground track for satellite METEOR 2-17 DEB.

In-orbit conjunctions

A list of the most updated potential collisions computed for object METEOR 2-17 DEB.

Target Orbit TCA Probability of collision Miss distance Type
TEMPSAT 2 LEO 2024-12-20 12:54:20 0.0002377663 494.0 (m) PAYLOAD
FENGYUN 1C DEB SSO 2024-08-30 17:08:41 0.001403495 28.0 (m) DEBRIS

Associated space launch

Second generation soviet meteorological satellite

METEOR 2-17 DEB was lifted into orbit during the mission ‘Tsiklon-3 | Meteor-2 17’, on board a Tsiklon-3 space rocket.

The launch took place on Jan. 30, 1988, 10:59 a.m. from 32/1.

For more information about the launch, click the button.

Launch to space Tsiklon-3 | Meteor-2 17
Tsiklon-3 | Meteor-2 17

Agency: N/A

Status: Launch Successful

Launch date: Jan. 30, 1988, 10:59 a.m. UTC

Rocket: Tsiklon-3

Launch pad: 32/1

Location: Plesetsk Cosmodrome, Russian Federation

...

Latest news about this satellite

There are no fresh news available about this satellite. Check back as we update our databases every day.


Newsletter sign-up

Weekly statistics, charts and insights to help you stay on top of the space industry.